Regional Weather Roundup
Issued by NWS

Home | Current Version | Previous Version | Text Only | Print | Product List | Glossary On
Versions: 1 2 3 4 5 6 7 8 9 10 11 12 13 14 15 16 17 18 19 20 21 22 23 24 25 26 27 28 29 30 31 32 33 34 35 36 37 38 39 40 41 42 43 44 45 46 47 48 49 50
000
ASUS43 KFSD 251710
RWRSD

WEATHER ROUNDUP FOR SOUTH DAKOTA
NATIONAL WEATHER SERVICE SIOUX FALLS SD
1200 PM CDT MON SEP 25 2017

NOTE: "FAIR" INDICATES FEW OR NO CLOUDS BELOW 12,000 FEET WITH NO
SIGNIFICANT WEATHER AND/OR OBSTRUCTIONS TO VISIBILITY.


SDZ001>005-009-010-012>017-251800-
NORTHWEST AND NORTH CENTRAL SOUTH DAKOTA

CITY           SKY/WX    TMP DP  RH WIND       PRES   REMARKS
BUFFALO          N/A     46  40  79 E6        30.08F
FAITH            N/A     47  41  80 N3        30.15S
MOBRIDGE       CLOUDY    52  45  77 NE7       30.11F
$$

SDZ012>016-024>037-041>051-057-063-072>074-251800-
SOUTHWEST AND SOUTH CENTRAL SOUTH DAKOTA

CITY           SKY/WX    TMP DP  RH WIND       PRES   REMARKS
RAPID CTY ARPT CLOUDY    45  43  93 SE9       30.14S
PIERRE         CLOUDY    52  42  69 N10       30.12S
CUSTER         CLOUDY    41  37  86 W6        30.12S
ELLSWORTH AFB  CLOUDY    46  46 100 E8        30.13
PHILIP         CLOUDY    52  44  74 NW6       30.14S
PINE RIDGE     CLOUDY    47  42  83 CALM      30.14F
SPEARFISH      CLOUDY    45  41  87 CALM      30.13S
WINNER         CLOUDY    52  47  83 N9        30.12S
$$

SDZ004>011-016>023-039-040-251800-
NORTHEAST SOUTH DAKOTA

CITY           SKY/WX    TMP DP  RH WIND       PRES   REMARKS
ABERDEEN       CLOUDY    52  46  80 NE13      30.10F
WATERTOWN      CLOUDY    50  48  93 N10       30.08R
BROOKINGS      CLOUDY    51  48  89 N9        30.07S
SISSETON         N/A     54  47  77 N13       30.08R
$$

SDZ017-020-022-023-036>040-048>070-251800-
SOUTHEAST SOUTH DAKOTA

CITY           SKY/WX    TMP DP  RH WIND       PRES   REMARKS
SIOUX FALLS    CLOUDY    54  53  97 NE10      30.05S FOG
HURON          CLOUDY    52  48  86 N10       30.09R
CHAMBERLAIN    CLOUDY    52  48  86 N7        30.12R
MITCHELL       CLOUDY    54  51  90 N7        30.08S
YANKTON        LGT RAIN  54  52  93 N12       30.03F
$$

ABBREVIATIONS USED IN REMARKS
   TC - TEMPERATURE IN CELSIUS
  WCI - WIND CHILL INDEX
   HX - HEAT INDEX
  VSB - VISIBILITY




USA.gov is the U.S. government's official web portal to all federal, state and local government web resources and services.